This is the latest recevied weather packets stored in our database for station/object IW1AXR-3. If no packets are shown the sender has not sent any weather packets the latest 10 day(s).
| Time | Temp. | Humidity | Pressure | Rain* | Wind** | Luminosity | Snow |
|---|---|---|---|---|---|---|---|
| 1777656537 | 12.22° C | 67% | 1023.7 hPa | - | - | - | - |
| 1777655932 | 12.78° C | 61% | 1023.6 hPa | - | - | - | - |
| 1777654122 | 14.44° C | 59% | 1023.7 hPa | - | - | - | - |
| 1777652914 | 15.56° C | 55% | 1023.8 hPa | - | - | - | - |
| 1777652310 | 15.56° C | 53% | 1023.8 hPa | - | - | - | - |
| 1777651104 | 16.11° C | 51% | 1023.9 hPa | - | - | - | - |
| 1777645069 | 17.22° C | 49% | 1024.5 hPa | - | - | - | - |
| 1777641449 | 15° C | 52% | 1025.3 hPa | - | - | - | - |
| 1777640845 | 15° C | 48% | 1025.4 hPa | - | - | - | - |
| 1777639037 | 13.89° C | 50% | 1025.7 hPa | - | - | - | - |
| 1777638431 | 14.44° C | 49% | 1025.8 hPa | - | - | - | - |
| 1777637828 | 14.44° C | 51% | 1025.9 hPa | - | - | - | - |
| 1777637225 | 13.89° C | 52% | 1025.9 hPa | - | - | - | - |
| 1777636625 | 13.89° C | 51% | 1025.9 hPa | - | - | - | - |
| 1777636019 | 15° C | 50% | 1025.9 hPa | - | - | - | - |
| 1777634197 | 13.89° C | 54% | 1026.1 hPa | - | - | - | - |
| 1777633578 | 13.89° C | 60% | 1026.1 hPa | - | - | - | - |
| 1777628077 | 11.67° C | 86% | 1026.1 hPa | - | - | - | - |
| 1777626256 | 11.11° C | 94% | 1025.9 hPa | - | - | - | - |
| 1777625652 | 11.11° C | 95% | 1025.8 hPa | - | - | - | - |
| 1777624432 | 11.11° C | 96% | 1025.7 hPa | - | - | - | - |
| 1777623209 | 11.11° C | 93% | 1025.5 hPa | - | - | - | - |
| 1777619536 | 10.56° C | 98% | 1025 hPa | - | - | - | - |
| 1777618932 | 10° C | 95% | 1025 hPa | - | - | - | - |
| 1777617716 | 10.56° C | 95% | 1024.9 hPa | - | - | - | - |
* Rain since midnight (hover to see other rain measurements)
** Current wind speed in m/s (hover to see current wind gust speed)